H1 CPF 1 NER 2019 8 20 9 7321 glonass126 H2 1105501 9126 37829 2019 8 20 0 0 0 2019 8 23 23 45 0 900 1 1 0 0 0 H9 10 0 58715 0.00000 0 11200466.481 -8446273.472 21316900.573 10 0 58715 900.00000 0 13726722.508 -8180952.705 19893445.235 10 0 58715 1800.00000 0 16067343.643 -8111762.232 18084015.328 10 0 58715 2700.00000 0 18162848.238 -8211390.459 15923612.222 10 0 58715 3600.00000 0 19961669.154 -8442669.837 13454066.625 10 0 58715 4500.00000 0 21422122.155 -8760307.739 10723237.283 10 0 58715 5400.00000 0 22513976.761 -9112973.866 7784090.326 10 0 58715 6300.00000 0 23219563.562 -9445656.486 4693676.246 10 0 58715 7200.00000 0 23534371.192 -9702187.939 1512023.982 10 0 58715 8100.00000 0 23467107.482 -9827832.213 -1699026.525 10 0 58715 9000.00000 0 23039221.886 -9771824.462 -4877030.420 10 0 58715 9900.00000 0 22283908.906 -9489753.793 -7960158.513 10 0 58715 10800.00000 0 21244634.378 -8945687.116 -10888407.792 10 0 58715 11700.00000 0 19973246.955 -8113942.603 -13604777.450 10 0 58715 12600.00000 0 18527754.696 -6980436.130 -16056386.454 10 0 58715 13500.00000 0 16969861.021 -5543542.171 -18195510.135 10 0 58715 14400.00000 0 15362364.365 -3814431.219 -19980514.927 10 0 58715 15300.00000 0 13766531.617 -1816868.138 -21376672.584 10 0 58715 16200.00000 0 12239556.296 413521.297 -22356837.856 10 0 58715 17100.00000 0 10832208.536 2830485.973 -22901976.508 10 0 58715 18000.00000 0 9586775.637 5378836.090 -23001533.563 10 0 58715 18900.00000 0 8535379.320 7996510.990 -22653634.999 10 0 58715 19800.00000 0 7698739.669 10616942.344 -21865119.353 10 0 58715 20700.00000 0 7085436.793 13171614.329 -20651399.030 10 0 58715 21600.00000 0 6691700.020 15592714.461 -19036154.379 10 0 58715 22500.00000 0 6501732.196 17815764.871 -17050866.811 10 0 58715 23400.00000 0 6488554.067 19782124.661 -14734200.336 10 0 58715 24300.00000 0 6615331.788 21441259.460 -12131243.805 10 0 58715 25200.00000 0 6837130.283 22752684.100 -9292628.836 10 0 58715 26100.00000 0 7103017.317 23687497.976 -6273540.928 10 0 58715 27000.00000 0 7358428.383 24229449.847 -3132643.287 10 0 58715 27900.00000 0 7547691.662 24375488.652 69065.416 10 0 58715 28800.00000 0 7616605.708 24135778.360 3269436.727 10 0 58715 29700.00000 0 7514960.462 23533177.536 6406378.261 10 0 58715 30600.00000 0 7198894.774 22602206.550 9419056.213 10 0 58715 31500.00000 0 6632990.721 21387546.790 12249071.049 10 0 58715 32400.00000 0 5792016.234 19942135.592 14841583.894 10 0 58715 33300.00000 0 4662242.434 18324937.213 17146372.200 10 0 58715 34200.00000 0 3242279.996 16598483.366 19118794.827 10 0 58715 35100.00000 0 1543398.918 14826286.056 20720648.704 10 0 58715 36000.00000 0 -410682.472 13070230.326 21920901.418 10 0 58715 36900.00000 0 -2584531.468 11388055.085 22696286.384 10 0 58715 37800.00000 0 -4932228.562 9831026.212 23031749.930 10 0 58715 38700.00000 0 -7399039.124 8441897.928 22920742.208 10 0 58715 39600.00000 0 -9923461.215 7253246.539 22365346.550 10 0 58715 40500.00000 0 -12439566.206 6286245.149 21376244.707 10 0 58715 41400.00000 0 -14879536.632 5549929.801 19972518.174 10 0 58715 42300.00000 0 -17176297.228 5040987.303 18181288.692 10 0 58715 43200.00000 0 -19266131.016 4744073.383 16037203.840 10 0 58715 44100.00000 0 -21091172.391 4632647.835 13581776.490 10 0 58715 45000.00000 0 -22601673.718 4670291.745 10862589.777 10 0 58715 45900.00000 0 -23757950.924 4812451.547 7932381.933 10 0 58715 46800.00000 0 -24531926.459 5008536.485 4848027.867 10 0 58715 47700.00000 0 -24908204.442 5204280.924 1669436.856 10 0 58715 48600.00000 0 -24884632.241 5344271.276 -1541612.416 10 0 58715 49500.00000 0 -24472324.242 5374530.023 -4722676.591 10 0 58715 50400.00000 0 -23695146.143 5245046.464 -7811868.070 10 0 58715 51300.00000 0 -22588681.127 4912145.820 -10749066.622 10 0 58715 52200.00000 0 -21198721.135 4340594.835 -13477097.652 10 0 58715 53100.00000 0 -19579346.900 3505353.239 -15942853.167 10 0 58715 54000.00000 0 -17790677.932 2392895.447 -18098332.831 10 0 58715 54900.00000 0 -15896387.353 1002045.035 -19901584.144 10 0 58715 55800.00000 0 -13961086.624 -655714.612 -21317522.952 10 0 58715 56700.00000 0 -12047690.378 -2556467.872 -22318618.162 10 0 58715 57600.00000 0 -10214872.173 -4664624.231 -22885427.362 10 0 58715 58500.00000 0 -8514717.947 -6934174.498 -23006973.123 10 0 58715 59400.00000 0 -6990675.171 -9310393.972 -22680952.991 10 0 58715 60300.00000 0 -5675883.039 -11731921.902 -21913779.510 10 0 58715 61200.00000 0 -4591952.764 -14133130.656 -20720449.847 10 0 58715 62100.00000 0 -3748247.867 -16446685.970 -19124247.990 10 0 58715 63000.00000 0 -3141693.177 -18606191.691 -17156285.563 10 0 58715 63900.00000 0 -2757119.031 -20548808.729 -14854890.551 10 0 58715 64800.00000 0 -2568124.505 -22217739.229 -12264856.054 10 0 58715 65700.00000 0 -2538421.702 -23564472.493 -9436563.924 10 0 58715 66600.00000 0 -2623602.941 -24550699.228 -6425000.677 10 0 58715 67500.00000 0 -2773254.925 -25149814.666 -3288685.105 10 0 58715 68400.00000 0 -2933329.422 -25347948.390 -88528.755 10 0 58715 69300.00000 0 -3048669.414 -25144478.567 3113348.177 10 0 58715 70200.00000 0 -3065583.256 -24552010.006 6254822.286 10 0 58715 71100.00000 0 -2934357.569 -23595817.885 9274970.184 10 0 58715 72000.00000 0 -2611602.477 -22312781.345 12115246.064 10 0 58715 72900.00000 0 -2062330.034 -20749852.330 14720611.021 10 0 58715 73800.00000 0 -1261678.050 -18962124.231 17040592.661 10 0 58715 74700.00000 0 -196206.630 -17010581.331 19030255.059 10 0 58715 75600.00000 0 1135287.446 -14959622.934 20651061.131 10 0 58715 76500.00000 0 2721473.204 -12874465.033 21871611.636 10 0 58715 77400.00000 0 4538718.098 -10818527.152 22668247.380 10 0 58715 78300.00000 0 6551842.176 -8850912.254 23025503.791 10 0 58715 79200.00000 0 8715363.741 -7024083.507 22936409.658 10 0 58715 80100.00000 0 10975186.130 -5381833.546 22402624.510 10 0 58715 81000.00000 0 13270657.124 -3957629.672 21434411.926 10 0 58715 81900.00000 0 15536916.988 -2773402.990 20050448.861 10 0 58715 82800.00000 0 17707438.926 -1838831.272 18277473.885 10 0 58715 83700.00000 0 19716657.530 -1151145.009 16149780.165 10 0 58715 84600.00000 0 21502576.669 -695464.401 13708561.792 10 0 58715 85500.00000 0 23009248.513 -445653.116 11001124.994 10 0 58716 0.00000 0 24189020.338 -365652.887 8079978.493 10 0 58716 900.00000 0 25004454.586 -411242.670 5001819.425 10 0 58716 1800.00000 0 25429841.869 -532148.250 1826435.037 10 0 58716 2700.00000 0 25452241.163 -674412.562 -1384459.976 10 0 58716 3600.00000 0 25072004.363 -782926.238 -4568426.726 10 0 58716 4500.00000 0 24302760.875 -804010.241 -7663522.326 10 0 58716 5400.00000 0 23170862.739 -687940.211 -10609512.455 10 0 58716 6300.00000 0 21714312.843 -391304.206 -13349051.778 10 0 58716 7200.00000 0 19981221.215 120907.335 -15828808.247 10 0 58716 8100.00000 0 18027854.147 873569.419 -18000508.558 10 0 58716 9000.00000 0 15916358.312 1880122.822 -19821883.753 10 0 58716 9900.00000 0 13712255.751 3141763.127 -21257496.012 10 0 58716 10800.00000 0 11481815.041 4647154.011 -22279430.387 10 0 58716 11700.00000 0 9289409.030 6372677.929 -22867838.024 10 0 58716 12600.00000 0 7194969.880 8283214.542 -23011320.467 10 0 58716 13500.00000 0 5251647.635 10333414.950 -22707147.929 10 0 58716 14400.00000 0 3503769.719 12469418.906 -21961307.669 10 0 58716 15300.00000 0 1985185.907 14630943.441 -20788381.927 10 0 58716 16200.00000 0 718066.792 16753655.794 -19211258.179 10 0 58716 17100.00000 0 -287795.400 18771731.634 -17260677.667 10 0 58716 18000.00000 0 -1035155.981 20620491.629 -14974631.292 10 0 58716 18900.00000 0 -1538951.679 22239006.273 -12397614.889 10 0 58716 19800.00000 0 -1825416.469 23572560.153 -9579758.583 10 0 58716 20700.00000 0 -1930718.301 24574872.681 -6575847.543 10 0 58716 21600.00000 0 -1899175.889 25209982.674 -3444253.430 10 0 58716 22500.00000 0 -1781132.198 25453718.247 -245797.650 10 0 58716 23400.00000 0 -1630575.646 25294690.956 2957431.104 10 0 58716 24300.00000 0 -1502610.436 24734773.197 6103281.773 10 0 58716 25200.00000 0 -1450883.581 23789039.486 9130744.806 10 0 58716 26100.00000 0 -1525077.691 22485174.780 11981131.504 10 0 58716 27000.00000 0 -1768575.600 20862375.139 14599206.192 10 0 58716 27900.00000 0 -2216395.449 18969787.084 16934249.726 10 0 58716 28800.00000 0 -2893483.231 16864551.042 18941034.276 10 0 58716 29700.00000 0 -3813434.781 14609530.365 20580691.351 10 0 58716 30600.00000 0 -4977701.202 12270820.111 21821457.187 10 0 58716 31500.00000 0 -6375311.546 9915138.679 22639281.924 10 0 58716 32400.00000 0 -7983125.219 7607209.746 23018291.619 10 0 58716 33300.00000 0 -9766604.694 5407242.224 22951094.757 10 0 58716 34200.00000 0 -11681077.622 3368611.780 22438927.592 10 0 58716 35100.00000 0 -13673437.276 1535839.063 21491635.502 10 0 58716 36000.00000 0 -15684212.080 -57052.420 20127490.247 10 0 58716 36900.00000 0 -17649919.491 -1387731.309 18372845.981 10 0 58716 37800.00000 0 -19505607.448 -2446257.181 16261639.630 10 0 58716 38700.00000 0 -21187478.463 -3235254.523 13834744.147 10 0 58716 39600.00000 0 -22635487.333 -3769554.844 11139186.044 10 0 58716 40500.00000 0 -23795804.140 -4075322.180 8227241.254 10 0 58716 41400.00000 0 -24623039.115 -4188698.872 5155426.022 10 0 58716 42300.00000 0 -25082135.507 -4154028.833 1983401.927 10 0 58716 43200.00000 0 -25149850.100 -4021733.561 -1227183.882 10 0 58716 44100.00000 0 -24815757.964 -3845931.161 -4413900.498 10 0 58716 45000.00000 0 -24082738.188 -3681899.783 -7514753.156 10 0 58716 45900.00000 0 -22966918.910 -3583493.836 -10469396.714 10 0 58716 46800.00000 0 -21497083.018 -3600623.561 -13220318.171 10 0 58716 47700.00000 0 -19713558.942 -3776906.016 -15713964.232 10 0 58716 48600.00000 0 -17666642.755 -4147588.208 -17901791.100 10 0 58716 49500.00000 0 -15414617.657 -4737831.638 -19741215.411 10 0 58716 50400.00000 0 -13021453.921 -5561431.985 -21196447.233 10 0 58716 51300.00000 0 -10554285.860 -6620029.136 -22239188.761 10 0 58716 52200.00000 0 -8080771.483 -7902841.893 -22849185.104 10 0 58716 53100.00000 0 -5666445.387 -9386939.283 -23014616.622 10 0 58716 54000.00000 0 -3372175.244 -11038037.750 -22732325.499 10 0 58716 54900.00000 0 -1251827.703 -12811791.239 -22007872.559 10 0 58716 55800.00000 0 649759.518 -14655520.339 -20855423.570 10 0 58716 56700.00000 0 2298415.694 -16510308.198 -19297467.659 10 0 58716 57600.00000 0 3671818.252 -18313375.507 -17364373.617 10 0 58716 58500.00000 0 4760169.128 -20000635.002 -15093793.027 10 0 58716 59400.00000 0 5566339.851 -21509318.492 -12529922.117 10 0 58716 60300.00000 0 6105481.190 -22780566.287 -9722636.891 10 0 58716 61200.00000 0 6404115.641 -23761870.472 -6726518.754 10 0 58716 62100.00000 0 6498752.847 -24409269.692 -3599789.832 10 0 58716 63000.00000 0 6434087.970 -24689203.550 -403179.019 10 0 58716 63900.00000 0 6260860.441 -24579949.069 2801258.795 10 0 58716 64800.00000 0 6033464.706 -24072579.366 5951347.136 10 0 58716 65700.00000 0 5807414.700 -23171404.691 8985992.441 10 0 58716 66600.00000 0 5636769.697 -21893877.807 11846365.162 10 0 58716 67500.00000 0 5571630.527 -20269967.985 14477034.792 10 0 58716 68400.00000 0 5655811.834 -18341030.032 16827037.220 10 0 58716 69300.00000 0 5924788.464 -16158215.635 18850854.314 10 0 58716 70200.00000 0 6404002.333 -13780493.067 20509287.568 10 0 58716 71100.00000 0 7107600.993 -11272357.229 21770209.845 10 0 58716 72000.00000 0 8037661.027 -8701324.583 22609181.505 10 0 58716 72900.00000 0 9183929.282 -6135316.068 23009919.851 10 0 58716 73800.00000 0 10524093.569 -3640035.431 22964613.414 10 0 58716 74700.00000 0 12024572.514 -1276450.599 22474075.278 10 0 58716 75600.00000 0 13641792.879 901518.724 21547732.477 10 0 58716 76500.00000 0 15323902.470 2849012.447 20203451.234 10 0 58716 77400.00000 0 17012848.554 4531857.857 18467200.727 10 0 58716 78300.00000 0 18646736.332 5927746.950 16372560.875 10 0 58716 79200.00000 0 20162370.078 7026914.870 13960082.514 10 0 58716 80100.00000 0 21497871.361 7832291.536 11276511.214 10 0 58716 81000.00000 0 22595265.097 8359120.420 8373888.708 10 0 58716 81900.00000 0 23402924.919 8634060.679 5308548.458 10 0 58716 82800.00000 0 23877774.628 8693810.563 2140024.398 10 0 58716 83700.00000 0 23987152.315 8583310.387 -1070106.138 10 0 58716 84600.00000 0 23710257.671 8353601.391 -4259422.711 10 0 58716 85500.00000 0 23039120.171 8059431.482 -7365881.289 10 0 58717 0.00000 0 21979045.995 7756710.008 -10329028.489 10 0 58717 900.00000 0 20548523.395 7499920.557 -13091186.376 10 0 58717 1800.00000 0 18778590.403 7339601.553 -15598582.881 10 0 58717 2700.00000 0 16711689.071 7320004.110 -17802406.094 10 0 58717 3600.00000 0 14400055.358 7477025.664 -19659760.483 10 0 58717 4500.00000 0 11903710.939 7836509.079 -21134506.087 10 0 58717 5400.00000 0 9288141.313 8412979.525 -22197964.173 10 0 58717 6300.00000 0 6621757.137 9208873.429 -22829475.569 10 0 58717 7200.00000 0 3973244.941 10214292.587 -23016800.988 10 0 58717 8100.00000 0 1408917.621 11407294.290 -22756355.865 10 0 58717 9000.00000 0 -1009825.120 12754705.578 -22053275.519 10 0 58717 9900.00000 0 -3228820.957 14213427.564 -20921309.792 10 0 58717 10800.00000 0 -5203157.740 15732175.078 -19382549.561 10 0 58717 11700.00000 0 -6898792.062 17253578.593 -17466990.795 10 0 58717 12600.00000 0 -8293707.396 18716560.024 -15211944.926 10 0 58717 13500.00000 0 -9378565.071 20058882.546 -12661307.294 10 0 58717 14400.00000 0 -10156822.696 21219767.213 -9864698.093 10 0 58717 15300.00000 0 -10644316.945 22142466.310 -6876492.910 10 0 58717 16200.00000 0 -10868330.217 22776685.275 -3754761.965 10 0 58717 17100.00000 0 -10866182.250 23080751.398 -560139.016 10 0 58717 18000.00000 0 -10683407.675 23023438.219 2645357.703 10 0 58717 18900.00000 0 -10371597.743 22585369.134 5799529.298 10 0 58717 19800.00000 0 -9985998.373 21759941.435 8841201.309 10 0 58717 20700.00000 0 -9582966.647 20553732.223 11711406.501 10 0 58717 21600.00000 0 -9217393.469 18986369.327 14354522.686 10 0 58717 22500.00000 0 -8940201.247 17089872.644 16719343.880 10 0 58717 23400.00000 0 -8796021.937 14907493.347 18760064.620 10 0 58717 24300.00000 0 -8821152.989 12492099.031 20437159.185 10 0 58717 25200.00000 0 -9041876.915 9904171.460 21718139.627 10 0 58717 26100.00000 0 -9473214.901 7209499.410 22578178.788 10 0 58717 27000.00000 0 -10118166.825 4476661.364 23000587.120 10 0 58717 27900.00000 0 -10967469.828 1774401.244 22977134.672 10 0 58717 28800.00000 0 -11999886.189 -830995.263 22508212.337 10 0 58717 29700.00000 0 -13183009.329 -3278216.380 21602829.243 10 0 58717 30600.00000 0 -14474555.443 -5513228.916 20278445.934 10 0 58717 31500.00000 0 -15824087.919 -7491277.333 18560645.868 10 0 58717 32400.00000 0 -17175103.703 -9178495.126 16482650.634 10 0 58717 33300.00000 0 -18467395.426 -10553062.181 14084687.070 10 0 58717 34200.00000 0 -19639591.097 -11605860.259 11413217.438 10 0 58717 35100.00000 0 -20631765.421 -12340599.584 8520046.487 10 0 58717 36000.00000 0 -21388013.091 -12773411.425 5461321.786 10 0 58717 36900.00000 0 -21858875.513 -12931923.886 2296446.290 10 0 58717 37800.00000 0 -22003518.014 -12853860.027 -913075.991 10 0 58717 38700.00000 0 -21791564.741 -12585217.735 -4104838.657 10 0 58717 39600.00000 0 -21204512.539 -12178108.620 -7216751.999 10 0 58717 40500.00000 0 -20236662.777 -11688347.965 -10188258.079 10 0 58717 41400.00000 0 -18895530.177 -11172898.452 -12961517.268 10 0 58717 42300.00000 0 -17201710.183 -10687276.853 -15482542.078 10 0 58717 43200.00000 0 -15188209.461 -10283034.473 -17702255.488 10 0 58717 44100.00000 0 -12899266.502 -10005418.918 -19577452.391 10 0 58717 45000.00000 0 -10388711.280 -9891316.983 -21071644.905 10 0 58717 45900.00000 0 -7717932.207 -9967566.412 -22155774.890 10 0 58717 46800.00000 0 -4953535.131 -10249708.405 -22808779.783 10 0 58717 47700.00000 0 -2164792.042 -10741233.955 -23018000.898 10 0 58717 48600.00000 0 579014.282 -11433356.003 -22779426.542 10 0 58717 49500.00000 0 3211239.330 -12305317.117 -22097765.622 10 0 58717 50400.00000 0 5670409.569 -13325219.664 -20986350.659 10 0 58717 51300.00000 0 7902533.986 -14451343.391 -19466872.503 10 0 58717 52200.00000 0 9863099.099 -15633894.763 -17568952.203 10 0 58717 53100.00000 0 11518665.266 -16817114.162 -15329558.684 10 0 58717 54000.00000 0 12847999.186 -17941652.008 -12792283.823 10 0 58717 54900.00000 0 13842696.863 -18947113.520 -10006489.258 10 0 58717 55800.00000 0 14507272.722 -19774664.751 -7026341.874 10 0 58717 56700.00000 0 14858713.053 -20369589.932 -3909757.023 10 0 58717 57600.00000 0 14925514.398 -20683692.363 -717270.331 10 0 58717 58500.00000 0 14746249.064 -20677437.642 2489139.556 10 0 58717 59400.00000 0 14367719.713 -20321749.031 5647254.161 10 0 58717 60300.00000 0 13842782.065 -19599379.472 8695820.758 10 0 58717 61200.00000 0 13227928.417 -18505802.605 11575736.827 10 0 58717 62100.00000 0 12580734.425 -17049585.424 14231190.600 10 0 58717 63000.00000 0 11957276.981 -15252226.760 16610736.017 10 0 58717 63900.00000 0 11409631.859 -13147468.163 18668281.734 10 0 58717 64800.00000 0 10983556.131 -10780105.459 20363975.922 10 0 58717 65700.00000 0 10716452.368 -8204349.792 21664970.590 10 0 58717 66600.00000 0 10635699.686 -5481805.491 22546051.501 10 0 58717 67500.00000 0 10757421.334 -2679147.585 22990122.379 10 0 58717 68400.00000 0 11085740.354 134405.994 22988534.626 10 0 58717 69300.00000 0 11612554.643 2889724.076 22541256.525 10 0 58717 70200.00000 0 12317841.272 5520386.253 21656878.652 10 0 58717 71100.00000 0 13170478.060 7965193.867 20352455.025 10 0 58717 72000.00000 0 14129548.886 10170464.947 18653182.383 10 0 58717 72900.00000 0 15146079.146 12092018.885 16591922.811 10 0 58717 73800.00000 0 16165129.567 13696769.084 14208577.834 10 0 58717 74700.00000 0 17128161.408 14963857.658 11549324.937 10 0 58717 75600.00000 0 17975574.245 15885285.177 8665730.238 10 0 58717 76500.00000 0 18649309.844 16466009.242 5613753.595 10 0 58717 77400.00000 0 19095412.245 16723507.728 2452664.999 10 0 58717 78300.00000 0 19266435.566 16686825.245 -756107.003 10 0 58717 79200.00000 0 19123596.971 16395143.056 -3950172.302 10 0 58717 80100.00000 0 18638582.605 15895933.056 -7067397.831 10 0 58717 81000.00000 0 17794928.778 15242774.221 -10047123.341 10 0 58717 81900.00000 0 16588918.417 14492924.430 -12831349.841 10 0 58717 82800.00000 0 15029953.559 13704751.174 -15365876.529 10 0 58717 83700.00000 0 13140386.668 12935130.610 -17601363.284 10 0 58717 84600.00000 0 10954816.640 12236925.821 -19494297.313 10 0 58717 85500.00000 0 8518878.141 11656651.628 -21007844.572 10 0 58718 0.00000 0 5887574.174 11232425.174 -22112569.137 10 0 58718 900.00000 0 3123220.908 10992289.585 -22787006.577 10 0 58718 1800.00000 0 293090.900 10952980.622 -23018080.113 10 0 58718 2700.00000 0 -2533147.954 11119190.143 -22801351.988 10 0 58718 3600.00000 0 -5286090.957 11483355.258 -22141105.444 10 0 58718 4500.00000 0 -7899242.160 12025983.082 -21050256.051 10 0 58718 5400.00000 0 -10311537.379 12716496.361 -19550094.568 10 0 58718 6300.00000 0 -12469640.275 13514564.002 -17669866.615 10 0 58718 7200.00000 0 -14329916.641 14371859.888 -15446197.669 10 0 58718 8100.00000 0 -15860005.739 15234175.325 -12922374.828 10 0 58718 9000.00000 0 -17039924.449 16043795.601 -10147499.521 10 0 58718 9900.00000 0 -17862659.549 16742040.005 -7175528.030 10 0 58718 10800.00000 0 -18334225.071 17271857.789 -4064218.726 10 0 58718 11700.00000 0 -18473184.064 17580370.329 -874006.825 10 0 58718 12600.00000 0 -18309656.531 17621252.007 2333171.046 10 0 58718 13500.00000 0 -17883856.880 17356849.321 5495079.372 10 0 58718 14400.00000 0 -17244223.793 16759948.841 8550389.831 10 0 58718 15300.00000 0 -16445222.303 15815119.498 11439867.366 10 0 58718 16200.00000 0 -15544911.386 14519572.692 14107513.449 10 0 58718 17100.00000 0 -14602379.777 12883503.865 16501644.749 10 0 58718 18000.00000 0 -13675157.945 10929900.925 18575886.814 10 0 58718 18900.00000 0 -12816714.704 8693826.972 20290064.353 10 0 58718 19800.00000 0 -12074143.111 6221206.433 21610971.782 10 0 58718 20700.00000 0 -11486132.117 3567164.224 22513009.987 10 0 58718 21600.00000 0 -11081308.410 793985.747 22978677.835 10 0 58718 22500.00000 0 -10877017.371 -2031219.049 22998909.585 10 0 58718 23400.00000 0 -10878593.907 -4839052.043 22573251.980 10 0 58718 24300.00000 0 -11079153.637 -7560460.219 21709877.658 10 0 58718 25200.00000 0 -11459913.395 -10129358.152 20425434.235 10 0 58718 26100.00000 0 -11991028.149 -12485132.187 18744731.334 10 0 58718 27000.00000 0 -12632909.924 -14574923.467 16700270.657 10 0 58718 27900.00000 0 -13337974.190 -16355595.766 14331627.042 10 0 58718 28800.00000 0 -14052741.073 -17795306.614 11684691.378 10 0 58718 29700.00000 0 -14720203.638 -18874616.499 8810788.951 10 0 58718 30600.00000 0 -15282363.788 -19587089.798 5765689.375 10 0 58718 31500.00000 0 -15682828.820 -19939362.180 2608526.859 10 0 58718 32400.00000 0 -15869358.658 -19950671.583 -599348.546 10 0 58718 33300.00000 0 -15796255.221 -19651872.383 -3795566.240 10 0 58718 34200.00000 0 -15426491.959 -19083974.447 -6917953.145 10 0 58718 35100.00000 0 -14733491.938 -18296268.841 -9905750.155 10 0 58718 36000.00000 0 -13702477.743 -17344119.730 -12700802.403 10 0 58718 36900.00000 0 -12331334.605 -16286516.411 -15248699.193 10 0 58718 37800.00000 0 -10630948.744 -15183489.581 -17499840.568 10 0 58718 38700.00000 0 -8625005.179 -14093501.641 -19410409.047 10 0 58718 39600.00000 0 -6349252.231 -13070921.912 -20943227.018 10 0 58718 40500.00000 0 -3850262.553 -12163693.832 -22068482.890 10 0 58718 41400.00000 0 -1183741.699 -11411292.829 -22764311.815 10 0 58718 42300.00000 0 1587545.516 -10843061.054 -23017219.817 10 0 58718 43200.00000 0 4396144.838 -10476988.963 -22822343.366 10 0 58718 44100.00000 0 7172480.095 -10318994.635 -22183539.732 10 0 58718 45000.00000 0 9847511.723 -10362730.590 -21113306.701 10 0 58718 45900.00000 0 12355375.977 -10589925.484 -19632533.646 10 0 58718 46800.00000 0 14635895.427 -10971245.437 -17770089.040 10 0 58718 47700.00000 0 16636856.723 -11467637.841 -15562252.812 10 0 58718 48600.00000 0 18315961.511 -12032100.121 -13052004.807 10 0 58718 49500.00000 0 19642370.179 -12611798.044 -10288183.451 10 0 58718 50400.00000 0 20597775.074 -13150443.484 -7324531.317 10 0 58718 51300.00000 0 21176959.750 -13590830.614 -4218646.465 10 0 58718 52200.00000 0 21387822.369 -13877422.974 -1030860.229 10 0 58718 53100.00000 0 21250863.775 -13958881.761 2176936.277 10 0 58718 54000.00000 0 20798163.322 -13790428.353 5342493.911 10 0 58718 54900.00000 0 20071886.832 -13335941.160 8404411.948 10 0 58718 55800.00000 0 19122390.572 -12569698.296 11303325.681 10 0 58718 56700.00000 0 18006001.802 -11477692.499 13983052.321 10 0 58718 57600.00000 0 16782569.678 -10058462.770 16391673.347 10 0 58718 58500.00000 0 15512889.518 -8323407.503 18482532.826 10 0 58718 59400.00000 0 14256108.347 -6296565.384 20215133.206 10 0 58718 60300.00000 0 13067220.023 -4013872.412 21555912.099 10 0 58718 61200.00000 0 11994754.219 -1521925.016 22478885.905 10 0 58718 62100.00000 0 11078755.187 1123700.494 22966148.675 10 0 58718 63000.00000 0 10349134.106 3860503.838 23008217.224 10 0 58718 63900.00000 0 9824463.243 6621408.140 22604216.148 10 0 58718 64800.00000 0 9511261.881 9337303.087 21761899.262 10 0 58718 65700.00000 0 9403803.654 11939679.951 20497506.643 10 0 58718 66600.00000 0 9484453.403 14363250.495 18835459.457 10 0 58718 67500.00000 0 9724519.718 16548442.230 16807897.483 10 0 58718 68400.00000 0 10085587.825 18443667.182 14454067.175 10 0 58718 69300.00000 0 10521277.353 20007270.196 11819570.978 10 0 58718 70200.00000 0 10979351.478 21209075.779 8955491.348 10 0 58718 71100.00000 0 11404088.866 22031468.835 5917405.527 10 0 58718 72000.00000 0 11738818.389 22469963.767 2764309.682 10 0 58718 72900.00000 0 11928509.193 22533237.772 -442526.968 10 0 58718 73800.00000 0 11922306.021 22242626.764 -3640755.718 10 0 58718 74700.00000 0 11675901.492 21631104.846 -6768165.857 10 0 58718 75600.00000 0 11153643.593 20741790.271 -9763901.706 10 0 58718 76500.00000 0 10330287.778 19626041.183 -12569654.703 10 0 58718 77400.00000 0 9192317.875 18341221.730 -15130806.280 10 0 58718 78300.00000 0 7738778.387 16948233.375 -17397498.500 10 0 58718 79200.00000 0 5981581.499 15508916.124 -19325610.871 10 0 58718 80100.00000 0 3945274.384 14083429.747 -20877623.730 10 0 58718 81000.00000 0 1666275.329 12727725.865 -22023351.158 10 0 58718 81900.00000 0 -808390.347 11491217.566 -22740529.087 10 0 58718 82800.00000 0 -3422802.410 10414744.741 -23015247.295 10 0 58718 83700.00000 0 -6114234.921 9528920.424 -22842217.142 10 0 58718 84600.00000 0 -8815535.852 8852927.180 -22224870.256 10 0 58718 85500.00000 0 -11457698.116 8393813.356 -21175286.576 99